Regional Weather Roundup
Issued by NWS

Home | Current Version | Previous Version | Text Only | Print | Product List | Glossary On
Versions: 1 2 3 4 5 6 7 8 9 10 11 12 13 14 15 16 17 18 19 20 21 22 23 24 25 26 27 28 29 30 31 32 33 34 35 36 37 38 39 40 41 42 43 44 45 46 47 48 49 50
000
ASUS44 KFWD 240315
RWRTX
NORTH TEXAS HOURLY WEATHER ROUNDUP
NATIONAL WEATHER SERVICE FORT WORTH TX
1000 PM CDT SUN APR 23 2017

NOTE: "FAIR" INDICATES FEW OR NO CLOUDS BELOW 12,000 FEET WITH NO
SIGNIFICANT WEATHER AND/OR OBSTRUCTIONS TO VISIBILITY.

TXZ118-119-240400-
DALLAS/FORT WORTH METROPLEX

CITY           SKY/WX    TMP DP  RH WIND       PRES   REMARKS
DFW AIRPORT    CLEAR     61  41  47 NE5       30.00R
DALLAS LOVE    CLEAR     61  43  51 E3        30.01R
FTW MEACHAM    CLEAR     66  40  38 CALM      30.01S
DAL-EXECUTIVE  CLEAR     57  44  62 CALM      30.01R
FTW-ALLIANCE   CLEAR     50  44  80 CALM      30.02R
FTW-NAS-JRB    CLEAR     64  39  39 E5        30.02R
FTW-SPINKS     CLEAR     54  46  73 CALM      30.04R
ARLINGTON      CLEAR     53  45  74 CALM      30.02R
GRAND PRAIRIE  CLEAR     62  40  45 CALM      30.03S
MESQUITE       CLEAR     58  43  56 CALM      30.01S
LANCASTER      CLEAR     56  46  67 CALM      30.03R
$$

TXZ091>094-102>105-117-120-121-131>134-240400-
NORTH CENTRAL TEXAS

CITY           SKY/WX    TMP DP  RH WIND       PRES   REMARKS
SHRMAN/DENISON CLEAR     58  41  53 CALM      30.03R
GAINESVILLE    CLEAR     56  42  58 CALM      30.04S
BOWIE          CLEAR     53  47  82 CALM      30.02S
BRIDGEPORT     CLEAR     50  45  83 CALM      30.04R
DECATUR        CLEAR     61  39  44 CALM      30.03R
DENTON         CLEAR     56  46  69 CALM      30.02R
MCKINNEY       CLEAR     57  45  64 CALM      30.01S
BONHAM         CLEAR     55  45  67 CALM      30.01R
GREENVILLE     CLEAR     54  50  87 CALM      30.01S
ROCKWALL       CLEAR     58  45  62 NE3       30.01F
TERRELL        CLEAR     53  47  79 CALM      30.01S
WAXAHACHIE     CLEAR     54  45  72 CALM      30.03R
CLEBURNE       CLEAR     61  43  51 CALM      30.04S
GRANBURY       CLEAR     55  44  66 CALM      30.04R
$$

TXZ083>090-098>101-113>116-127>130-139>142-154-155-240400-
WESTERN NORTH TEXAS

CITY           SKY/WX    TMP DP  RH WIND       PRES   REMARKS
WICHITA FALLS  CLEAR     55  38  52 SE8       30.00S
WF-KICKAPOO    CLEAR     55  41  58 SE6       30.02S
VERNON         CLEAR     60  37  43 SE7       30.00F
ABILENE        CLEAR     56  38  50 SE9       30.02S
ABILENE-DYESS  CLEAR     61  39  44 S8        30.00S
GRAHAM         CLEAR     53  44  72 E3        30.01S
BRECKENRIDGE   CLEAR     58  37  45 SE8       30.02S
CISCO          CLEAR     59  37  44 SE6       30.03S
RANGER         CLEAR     49  40  72 E3        30.04R
MINERAL WELLS  CLEAR     57  39  51 SE3       30.01R
STEPHENVILLE   CLEAR     57  40  53 CALM      30.06R
COMANCHE       CLEAR     58  42  54 S3        30.04S
BROWNWOOD      PTCLDY    55  41  58 CALM      30.03S
COLEMAN        CLEAR     58  38  47 CALM      30.03S
$$

TXZ143>147-156>162-174-175-240400-
CENTRAL TEXAS

CITY           SKY/WX    TMP DP  RH WIND       PRES   REMARKS
WACO           CLEAR     53  49  86 CALM      30.02R
WACO-TSTC      CLEAR     54  48  82 CALM      30.02S
WACO-MCGREGOR  CLEAR     57  47  69 CALM      30.03R
HILLSBORO      CLEAR     57  44  60 NE6       30.02S
CORSICANA      CLEAR     59  48  67 NE3       30.03R
MEXIA          CLEAR     58  46  64 CALM      30.02R
HEARNE         CLEAR     55  50  83 CALM      30.03S
CAMERON        CLEAR     60  47  64 CALM      30.03R
TEMPLE         CLEAR     56  45  66 NE5       30.03R
KILLEEN        CLEAR     61  42  50 CALM      30.02R
KILLEEN-SKYLRK CLEAR     58  44  60 CALM      30.03R
FORT HOOD      CLEAR     62  43  50 CALM      30.00R
GATESVILLE     CLEAR     57  45  62 CALM      30.05S
HAMILTON       CLEAR     62  38  41 E3        30.04S
LAMPASAS       CLEAR     54  46  74 CALM      30.03R
$$

TXZ095>097-106>112-122>126-135>138-148>153-164>167-240400-
EAST TEXAS

CITY           SKY/WX    TMP DP  RH WIND       PRES   REMARKS
PARIS          CLEAR     57  43  58 N7        30.02S
SULPHUR SPRNGS CLEAR     61  44  54 CALM      30.03S
MOUNT PLEASANT CLEAR     56  46  68 CALM      30.02S
GILMER         PTCLDY    53  48  82 CALM      30.01R
MINEOLA        CLEAR     52  46  82 CALM      30.01S
TYLER          CLEAR     56  48  74 CALM      30.00S
LONGVIEW       CLEAR     56  49  77 CALM      29.99S
MARSHALL       CLEAR     53  48  85 MISG      30.02S
ATHENS         CLEAR     52  45  76 CALM      30.00S
PALESTINE      CLEAR     53  50  87 CALM      30.03R
JACKSONVILLE   CLEAR     61  45  54 CALM      30.02S
HENDERSON      CLEAR     53  48  82 CALM      30.00F
CENTER         CLEAR     58  52  80 CALM      30.01S
NACOGDOCHES    CLEAR     52  46  82 CALM      29.99S
LUFKIN         CLEAR     55  50  83 CALM      30.00R
$$

SUPPLEMENTAL OBSERVATIONS (CENTRAL)

CITY           SKY/WX    TMP DP  RH WIND       PRES   REMARKS
DENISON DAM      N/A     63  39  42 CALM        N/A
CADDO GRASSLND   N/A     52  46  82 SE1         N/A
PAT MAYSE LAKE   N/A     59  37  44 N1          N/A
GREENVILLE       N/A     63  39  42 NE8         N/A
CEDAR HILL       N/A     54  41  62 SE1         N/A
ATHENS           N/A     55  48  76 W1          N/A
MCGREGOR         N/A     52  48  87 CALM        N/A
TEMPLE           N/A     64  41  42 N5          N/A
$$

SUPPLEMENTAL OBSERVATIONS (WEST)

CITY           SKY/WX    TMP DP  RH WIND       PRES   REMARKS
MILLERS CREEK    N/A     57  36  44 SE8         N/A
POSSUM KINGDOM   N/A     61  37  41 SE5         N/A
LBJ GRASSLAND    N/A     57  39  51 E2          N/A
GRANBURY         N/A     55  43  62 SW2         N/A
HAMBY            N/A     55  36  47 SE6         N/A
IVIE RESERVOIR   N/A     57  37  47 E7          N/A
COLORADO BEND    N/A     55  37  50 CALM        N/A
$$

SUPPLEMENTAL OBSERVATIONS (EAST)

CITY           SKY/WX    TMP DP  RH WIND       PRES   REMARKS
CLARKSVILLE      N/A     57  41  54 N1          N/A
TEXARKANA        N/A     50  46  87 CALM        N/A
LINDEN           N/A     54  46  76 CALM        N/A
CADDO LAKE       N/A     48  46  93 CALM        N/A
GILMER           N/A     54  48  82 CALM        N/A
HENDERSON        N/A     54  46  76 N1          N/A
LUFKIN           N/A     55  50  82 MISG        N/A
N SABINE NF      N/A     54  48  82 MISG        N/A
S SABINE NF      N/A     54  48  82 CALM        N/A
$$

SUPPLEMENTAL OBSERVATIONS ARE A COLLECTION OF AUTOMATED INSTRUMENTS
THAT ARE MAINTAINED BY A VARIETY OF FEDERAL AND STATE AGENCIES.
CERTAIN ELEMENTS...SUCH AS HUMIDITY VALUES AND SUSTAINED WIND
SPEEDS...MAY BE APPROXIMATED.




USA.gov is the U.S. government's official web portal to all federal, state and local government web resources and services.